Wind_Speed
24 27 31 30 33 43 42 39 26 23 25 28 33 39 41 41 43 43 48 45 46 45 46 45 43 43 46 44 44 41 37 35
27 30 31 31 38 25 18 19 17 20 23 21 16 19 21 23 25 25 29 35 43 43 43 43 46 47 45 45 45 44 43 39
29 28 24 22 13 17 19 23 22 25 26 29 33 33 34 32 27 17 16 16 18 24 28 32 37 42 47 46 49 50 49 48
15 11 11 15 17 17 20 23 25 27 28 29 30 31 30 31 33 34 34 31 29 25 23 21 19 23 30 40 45 49 53 53
11 14 14 15 18 20 21 22 24 25 26 28 29 28 29 30 31 32 32 29 29 27 28 27 30 29 25 23 24 30 39 50
11 10 11 14 17 17 18 21 25 25 27 30 29 29 29 30 32 34 35 33 30 28 27 25 27 28 29 32 32 30 26 33
7 9 11 15 16 19 21 22 24 25 29 29 32 32 33 33 33 33 34 34 33 32 34 29 28 28 28 29 30 32 33 29
9 10 14 17 18 20 21 24 26 28 30 30 32 33 35 35 34 35 35 36 33 32 29 34 34 31 31 30 29 30 28 29
11 14 16 18 22 23 24 26 27 28 29 29 30 31 32 31 31 33 35 35 33 35 37 38 36 38 36 33 33 33 31 29
13 14 19 21 23 24 26 26 26 28 32 34 33 35 35 36 36 37 39 38 38 39 38 39 40 41 40 39 38 37 35 32
11 14 16 20 23 25 27 26 26 27 28 31 34 36 37 37 38 40 41 41 42 44 43 41 39 43 44 43 43 38 38 36
16 18 21 21 22 25 28 28 33 33 34 34 34 35 37 39 39 39 43 46 45 44 47 47 42 41 43 45 42 39 38 38
20 21 21 25 28 32 33 38 40 42 43 42 42 43 44 45 44 45 45 48 50 51 48 48 47 42 42 44 42 41 39 39
26 26 26 32 34 38 40 45 45 47 42 42 43 43 47 50 48 47 50 50 50 51 56 53 52 51 45 41 42 44 42 44
30 32 34 38 41 44 45 48 49 50 53 46 47 49 47 49 51 52 53 55 55 57 58 59 57 53 51 48 42 40 45 46
37 41 44 45 43 44 49 52 53 57 53 54 48 51 55 54 52 55 57 60 61 62 62 62 60 59 59 53 48 47 45 47
43 45 45 48 50 51 53 53 57 63 58 55 54 54 58 56 58 60 62 63 65 67 69 68 66 62 61 60 55 50 50 50
44 46 48 51 51 53 58 60 65 67 66 63 63 61 64 63 64 62 66 68 70 70 71 72 71 68 64 60 59 58 57 55
50 51 51 51 52 54 56 59 64 67 68 67 69 71 72 71 70 70 70 72 73 74 74 74 72 72 70 66 64 63 61 60
53 54 57 53 52 53 56 62 67 70 74 74 73 76 77 79 79 76 76 78 78 76 77 74 73 75 74 74 73 72 71 69
Wind_Direction
318 315 331 320 322 322 317 312 317 320 313 307 305 300 293 287 286 286 282 280 281 280 283 279 275 277 282 283 283 284 281 285
319 326 316 317 323 319 339 353 349 19 31 25 11 7 345 324 315 309 298 293 290 286 284 275 274 274 271 273 276 275 273 272
332 325 336 345 359 351 8 19 28 22 21 25 25 23 20 19 15 355 335 331 325 308 300 290 284 279 276 270 270 266 265 266
334 8 21 15 19 20 26 30 28 28 25 19 20 18 14 15 14 7 6 5 6 1 356 345 317 301 292 284 278 272 269 265
42 31 35 34 29 22 22 22 17 17 16 18 17 14 14 12 8 7 8 1 357 0 356 356 349 346 335 311 303 292 278 271
49 46 26 20 16 15 15 7 5 1 358 359 358 359 358 355 355 353 352 351 356 356 354 349 344 340 343 342 335 325 311 284
32 13 13 11 5 0 357 353 352 353 353 349 347 346 345 346 346 345 345 344 345 346 344 340 337 338 340 341 336 331 327 314
10 3 350 355 349 346 343 343 344 343 343 345 344 341 340 339 338 338 339 338 332 336 336 334 336 336 334 331 333 329 328 328
335 332 333 340 339 341 343 345 344 347 348 354 354 348 344 341 339 340 335 331 330 328 329 327 322 323 326 331 330 326 327 324
314 322 325 325 334 337 335 339 342 347 344 342 340 338 339 336 334 331 329 325 323 321 320 321 320 318 322 324 325 323 322 322
320 324 327 330 330 327 328 329 330 329 328 328 328 328 330 331 329 330 327 324 322 321 319 317 313 312 311 313 318 318 317 316
311 316 317 320 322 322 327 324 326 326 327 325 323 325 327 327 325 321 318 316 319 320 321 316 313 309 306 308 312 312 313 311
303 306 312 310 311 316 316 320 321 323 322 321 318 319 318 318 321 325 322 318 317 318 318 316 312 309 307 307 306 309 309 309
292 294 300 306 305 309 309 310 310 316 322 320 326 321 319 317 323 322 320 321 313 311 312 313 312 311 307 303 306 306 305 306
285 289 299 307 307 311 309 308 308 312 319 320 316 321 319 318 317 317 316 318 318 317 314 313 311 310 308 305 304 300 304 304
294 303 303 301 302 302 301 304 306 309 316 322 318 316 319 313 316 318 316 314 314 314 315 311 309 307 309 304 301 299 302 301
307 296 300 304 301 298 298 295 298 304 311 317 312 316 315 314 309 312 313 313 311 308 310 309 307 305 307 305 303 299 299 300
293 295 295 294 291 292 293 293 294 304 306 312 313 312 312 311 309 308 310 309 308 307 307 308 305 304 304 304 302 301 300 298
289 289 294 297 299 299 301 297 298 301 303 307 309 308 308 306 305 306 305 306 305 305 306 306 304 304 303 303 303 300 297 296
290 295 298 299 298 300 304 303 304 306 306 305 302 303 303 303 302 302 302 303 304 303 306 305 303 302 303 304 304 303 300 297
Height
10812 10809 10806 10804 10801 10796 10792 10788 10784 10779 10775 10773 10769 10766 10763 10761 10760 10759 10758 10758 10758 10758 10758 10758 10757 10758 10755 10756 10756 10758 10759 10758
10809 10806 10803 10799 10794 10790 10790 10787 10782 10779 10775 10771 10768 10765 10762 10758 10756 10752 10750 10749 10749 10749 10748 10748 10749 10749 10748 10745 10746 10745 10747 10749
10804 10801 10798 10795 10794 10792 10788 10786 10782 10779 10774 10771 10767 10763 10761 10757 10754 10750 10747 10745 10743 10742 10741 10739 10738 10738 10739 10738 10735 10734 10734 10737
10800 10799 10797 10796 10792 10790 10787 10784 10781 10777 10773 10771 10767 10764 10761 10757 10754 10750 10746 10743 10741 10739 10736 10733 10732 10730 10729 10727 10726 10726 10725 10725
10801 10798 10796 10794 10791 10789 10786 10783 10780 10775 10772 10770 10766 10764 10761 10758 10755 10753 10748 10745 10742 10738 10734 10731 10727 10724 10722 10721 10718 10716 10714 10713
10800 10798 10796 10793 10790 10788 10785 10783 10778 10775 10772 10769 10766 10763 10760 10757 10754 10751 10748 10745 10742 10739 10735 10730 10726 10722 10719 10714 10711 10707 10705 10703
10798 10796 10794 10792 10789 10787 10784 10781 10778 10775 10771 10768 10765 10761 10758 10754 10751 10747 10744 10741 10739 10736 10732 10727 10723 10719 10715 10711 10706 10702 10697 10695
10798 10795 10793 10791 10789 10787 10783 10779 10775 10772 10769 10765 10762 10758 10754 10751 10747 10744 10740 10737 10733 10731 10728 10723 10718 10714 10710 10706 10702 10697 10692 10688
10797 10796 10793 10791 10788 10784 10780 10777 10773 10769 10766 10762 10760 10756 10753 10749 10745 10740 10736 10732 10729 10725 10722 10718 10713 10707 10704 10700 10696 10690 10686 10682
10797 10795 10792 10790 10786 10782 10778 10775 10771 10767 10763 10759 10756 10752 10748 10744 10740 10735 10730 10725 10720 10717 10714 10710 10705 10701 10696 10691 10687 10682 10678 10674
10794 10791 10788 10786 10783 10779 10775 10772 10768 10764 10759 10755 10751 10747 10743 10739 10734 10729 10725 10720 10714 10708 10704 10702 10698 10692 10687 10683 10679 10674 10670 10665
10790 10787 10784 10782 10779 10776 10772 10768 10764 10758 10753 10748 10744 10740 10735 10731 10726 10721 10717 10712 10706 10701 10694 10690 10689 10686 10678 10673 10669 10665 10662 10657
10785 10782 10780 10778 10775 10770 10766 10762 10757 10751 10746 10741 10737 10732 10728 10723 10718 10712 10706 10700 10694 10689 10685 10680 10674 10672 10669 10663 10658 10654 10650 10646
10781 10778 10775 10772 10768 10763 10758 10753 10748 10743 10738 10734 10729 10725 10719 10714 10708 10703 10698 10693 10687 10680 10673 10668 10664 10658 10655 10653 10646 10641 10637 10633
10776 10773 10771 10766 10760 10754 10749 10744 10738 10733 10728 10724 10719 10715 10709 10703 10697 10691 10686 10681 10677 10671 10663 10656 10649 10646 10641 10636 10634 10630 10624 10619
10772 10769 10765 10759 10753 10746 10739 10733 10729 10723 10718 10712 10708 10704 10698 10693 10687 10680 10674 10667 10660 10655 10650 10644 10637 10629 10624 10622 10618 10613 10612 10606
10764 10759 10756 10750 10744 10738 10730 10723 10717 10712 10708 10703 10698 10693 10687 10681 10674 10667 10660 10653 10646 10639 10632 10627 10621 10616 10610 10603 10600 10599 10596 10591
10753 10749 10746 10740 10732 10726 10719 10712 10706 10700 10695 10691 10685 10679 10673 10666 10659 10652 10645 10637 10630 10623 10616 10609 10602 10596 10593 10590 10584 10578 10575 10575
10741 10737 10733 10729 10722 10715 10707 10698 10691 10684 10678 10673 10668 10662 10656 10648 10641 10634 10626 10619 10611 10605 10598 10592 10583 10577 10570 10566 10563 10560 10556 10553
10728 10724 10719 10714 10708 10702 10695 10686 10678 10670 10663 10658 10651 10644 10636 10628 10621 10614 10607 10599 10591 10583 10577 10572 10564 10557 10549 10543 10538 10534 10531 10529